Time,TemperatureF,DewpointF,PressureIn,WindDirection,WindDirectionDegrees,WindSpeedMPH,WindSpeedGustMPH,Humidity,HourlyPrecipIn,Conditions,Clouds,dailyrainin,SoftwareType,DateUTC
2013-05-22 00:01:00,59.0,55.0,-100.00,West,260,3.0,6.0,85,0.00,,,0.00,,2013-05-22 00:01:00,
2013-05-22 00:11:00,59.0,54.0,-100.00,WSW,250,4.0,6.0,85,0.00,,,0.00,,2013-05-22 00:11:00,
2013-05-22 00:21:00,58.0,54.0,-100.00,WSW,250,3.0,4.0,85,0.00,,,0.00,,2013-05-22 00:21:00,
2013-05-22 00:32:00,58.0,54.0,-100.00,West,270,2.0,4.0,86,0.00,,,0.00,,2013-05-22 00:32:00,
2013-05-22 00:41:00,58.0,54.0,-100.00,WNW,300,1.0,2.0,87,0.00,,,0.00,,2013-05-22 00:41:00,
2013-05-22 00:51:00,58.0,54.0,-100.00,North,350,2.0,2.0,87,0.00,,,0.00,,2013-05-22 00:51:00,
2013-05-22 01:01:00,58.0,55.0,-100.00,North,0,4.0,6.0,90,0.00,,,0.00,,2013-05-22 01:01:00,
2013-05-22 01:11:00,58.0,55.0,-100.00,North,0,3.0,6.0,92,0.00,,,0.00,,2013-05-22 01:11:00,
2013-05-22 01:21:00,57.0,55.0,-100.00,NNE,25,3.0,4.0,93,0.00,,,0.00,,2013-05-22 01:21:00,
2013-05-22 01:32:00,57.0,55.0,-100.00,NNE,30,2.0,4.0,93,0.00,,,0.00,,2013-05-22 01:32:00,
2013-05-22 01:41:00,57.0,55.0,-100.00,SSE,155,1.0,2.0,94,0.00,,,0.00,,2013-05-22 01:41:00,
2013-05-22 01:52:00,57.0,55.0,-100.00,SW,215,3.0,6.0,93,0.00,,,0.00,,2013-05-22 01:52:00,
2013-05-22 02:01:00,57.0,55.0,-100.00,SSW,210,4.0,6.0,93,0.00,,,0.00,,2013-05-22 02:01:00,
2013-05-22 02:11:00,57.0,55.0,-100.00,SW,220,3.0,6.0,94,0.00,,,0.00,,2013-05-22 02:11:00,
2013-05-22 02:21:00,56.0,55.0,-100.00,South,180,2.0,4.0,97,0.00,,,0.00,,2013-05-22 02:21:00,
2013-05-22 02:32:00,55.0,55.0,-100.00,East,90,2.0,4.0,99,0.00,,,0.00,,2013-05-22 02:32:00,
2013-05-22 03:43:00,54.0,54.0,-100.00,North,0,4.0,4.0,99,0.00,,,0.00,,2013-05-22 03:43:00,
2013-05-22 04:33:00,54.0,54.0,-100.00,NNE,25,4.0,5.0,99,0.00,,,0.00,,2013-05-22 04:33:00,
2013-05-22 04:43:00,54.0,54.0,-100.00,NNE,25,6.0,6.0,99,0.00,,,0.00,,2013-05-22 04:43:00,
2013-05-22 04:52:00,54.0,54.0,-100.00,NE,40,4.0,6.0,100,0.00,,,0.00,,2013-05-22 04:52:00,
2013-05-22 05:02:00,54.0,54.0,-100.00,NE,45,6.0,7.0,99,0.00,,,0.00,,2013-05-22 05:02:00,
2013-05-22 05:11:00,54.0,54.0,-100.00,NE,35,6.0,7.0,99,0.00,,,0.00,,2013-05-22 05:11:00,
2013-05-22 05:21:00,54.0,54.0,-100.00,NE,45,6.0,8.0,99,0.00,,,0.00,,2013-05-22 05:21:00,
2013-05-22 05:32:00,54.0,54.0,-100.00,NE,50,6.0,7.0,99,0.00,,,0.00,,2013-05-22 05:32:00,
2013-05-22 05:42:00,54.0,54.0,-100.00,NE,50,5.0,7.0,99,0.00,,,0.00,,2013-05-22 05:42:00,
2013-05-22 05:51:00,54.0,54.0,-100.00,NE,40,7.0,7.0,99,0.00,,,0.00,,2013-05-22 05:51:00,
2013-05-22 06:01:00,54.0,54.0,-100.00,NNE,20,7.0,8.0,99,0.00,,,0.00,,2013-05-22 06:01:00,
2013-05-22 06:11:00,54.0,54.0,-100.00,NNE,20,6.0,8.0,99,0.00,,,0.00,,2013-05-22 06:11:00,
2013-05-22 06:21:00,54.0,54.0,-100.00,NE,40,6.0,8.0,99,0.00,,,0.00,,2013-05-22 06:21:00,
2013-05-22 06:32:00,54.0,54.0,-100.00,NE,35,5.0,7.0,99,0.00,,,0.00,,2013-05-22 06:32:00,
2013-05-22 06:42:00,54.0,54.0,-100.00,NE,35,7.0,8.0,99,0.00,,,0.00,,2013-05-22 06:42:00,
2013-05-22 06:52:00,54.0,54.0,-100.00,NE,40,8.0,9.0,99,0.00,,,0.00,,2013-05-22 06:52:00,
2013-05-22 07:01:00,54.0,54.0,-100.00,NE,35,7.0,9.0,99,0.00,,,0.00,,2013-05-22 07:01:00,
2013-05-22 07:11:00,54.0,54.0,-100.00,NE,35,6.0,9.0,99,0.00,,,0.00,,2013-05-22 07:11:00,
2013-05-22 07:21:00,54.0,54.0,-100.00,NNE,25,6.0,9.0,99,0.00,,,0.00,,2013-05-22 07:21:00,
2013-05-22 07:31:00,54.0,54.0,-100.00,NE,35,9.0,11.0,99,0.00,,,0.00,,2013-05-22 07:31:00,
2013-05-22 07:41:00,54.0,54.0,-100.00,NE,35,9.0,11.0,99,0.00,,,0.00,,2013-05-22 07:41:00,
2013-05-22 07:52:00,54.0,54.0,-100.00,NE,40,7.0,10.0,99,0.00,,,0.00,,2013-05-22 07:52:00,
2013-05-22 08:02:00,54.0,54.0,-100.00,NNE,25,13.0,16.0,99,0.00,,,0.00,,2013-05-22 08:02:00,
2013-05-22 08:31:00,52.0,52.0,-100.00,NNE,20,13.0,16.0,99,0.00,,,0.00,,2013-05-22 08:31:00,
2013-05-22 08:42:00,52.0,52.0,-100.00,NNE,20,13.0,16.0,99,0.00,,,0.00,,2013-05-22 08:42:00,
2013-05-22 09:21:00,50.0,50.0,-100.00,North,10,12.0,16.0,99,0.00,,,0.00,,2013-05-22 09:21:00,
2013-05-22 09:33:00,50.0,50.0,-100.00,NNE,15,10.0,16.0,99,0.00,,,0.00,,2013-05-22 09:33:00,
2013-05-22 10:03:00,49.0,48.0,-100.00,NNE,20,12.0,16.0,99,0.00,,,0.00,,2013-05-22 10:03:00,
2013-05-22 10:12:00,48.0,48.0,-100.00,North,0,13.0,17.0,99,0.00,,,0.00,,2013-05-22 10:12:00,
2013-05-22 10:42:00,47.0,46.0,-100.00,North,0,12.0,18.0,99,0.00,,,0.00,,2013-05-22 10:42:00,
2013-05-22 10:52:00,47.0,46.0,-100.00,North,0,15.0,17.0,99,0.00,,,0.00,,2013-05-22 10:52:00,
2013-05-22 11:02:00,47.0,46.0,-100.00,North,0,14.0,19.0,99,0.00,,,0.00,,2013-05-22 11:02:00,
2013-05-22 11:11:00,47.0,46.0,-100.00,North,0,12.0,18.0,99,0.00,,,0.00,,2013-05-22 11:11:00,
2013-05-22 11:21:00,47.0,46.0,-100.00,NNE,20,12.0,19.0,99,0.00,,,0.00,,2013-05-22 11:21:00,
2013-05-22 11:32:00,47.0,46.0,-100.00,North,10,13.0,17.0,99,0.00,,,0.00,,2013-05-22 11:32:00,
2013-05-22 11:41:00,46.0,46.0,-100.00,North,0,12.0,19.0,99,0.00,,,0.00,,2013-05-22 11:41:00,
2013-05-22 11:52:00,47.0,46.0,-100.00,North,0,12.0,18.0,99,0.00,,,0.00,,2013-05-22 11:52:00,
2013-05-22 12:02:00,47.0,46.0,-100.00,North,0,12.0,16.0,99,0.00,,,0.00,,2013-05-22 12:02:00,
2013-05-22 12:12:00,47.0,46.0,-100.00,North,5,12.0,16.0,99,0.00,,,0.00,,2013-05-22 12:12:00,
2013-05-22 12:22:00,47.0,46.0,-100.00,North,0,13.0,17.0,99,0.00,,,0.00,,2013-05-22 12:22:00,
2013-05-22 12:32:00,46.0,46.0,-100.00,North,0,13.0,17.0,99,0.00,,,0.00,,2013-05-22 12:32:00,
2013-05-22 12:52:00,46.0,46.0,-100.00,North,0,12.0,18.0,99,0.00,,,0.00,,2013-05-22 12:52:00,
2013-05-22 13:01:00,46.0,46.0,-100.00,North,0,12.0,17.0,99,0.00,,,0.00,,2013-05-22 13:01:00,
2013-05-22 13:11:00,46.0,46.0,-100.00,North,0,12.0,16.0,99,0.00,,,0.00,,2013-05-22 13:11:00,
2013-05-22 13:52:00,46.0,46.0,-100.00,North,10,14.0,18.0,99,0.00,,,0.00,,2013-05-22 13:52:00,
2013-05-22 14:02:00,47.0,46.0,-100.00,North,0,11.0,17.0,99,0.00,,,0.00,,2013-05-22 14:02:00,
2013-05-22 14:11:00,47.0,46.0,-100.00,North,0,12.0,17.0,99,0.00,,,0.00,,2013-05-22 14:11:00,
2013-05-22 14:21:00,47.0,46.0,-100.00,North,0,13.0,18.0,99,0.00,,,0.00,,2013-05-22 14:21:00,
2013-05-22 14:32:00,47.0,46.0,-100.00,North,10,11.0,20.0,99,0.00,,,0.00,,2013-05-22 14:32:00,
2013-05-22 15:32:00,48.0,48.0,-100.00,North,0,12.0,19.0,99,0.00,,,0.00,,2013-05-22 15:32:00,
2013-05-22 15:42:00,48.0,48.0,-100.00,North,0,13.0,18.0,99,0.00,,,0.00,,2013-05-22 15:42:00,
2013-05-22 15:53:00,48.0,48.0,-100.00,NNE,20,13.0,19.0,99,0.00,,,0.00,,2013-05-22 15:53:00,
2013-05-22 16:03:00,49.0,48.0,-100.00,North,0,15.0,19.0,99,0.00,,,0.00,,2013-05-22 16:03:00,
2013-05-22 16:12:00,48.0,48.0,-100.00,North,0,14.0,19.0,99,0.00,,,0.00,,2013-05-22 16:12:00,
2013-05-22 16:23:00,49.0,48.0,-100.00,NNE,15,13.0,18.0,99,0.00,,,0.00,,2013-05-22 16:23:00,
2013-05-22 16:32:00,49.0,48.0,-100.00,North,0,11.0,17.0,99,0.00,,,0.00,,2013-05-22 16:32:00,
2013-05-22 16:42:00,49.0,48.0,-100.00,North,0,12.0,17.0,99,0.00,,,0.00,,2013-05-22 16:42:00,
2013-05-22 17:42:00,50.0,50.0,-100.00,North,0,12.0,19.0,99,0.00,,,0.00,,2013-05-22 17:42:00,
2013-05-22 18:02:00,51.0,50.0,-100.00,North,0,12.0,16.0,99,0.00,,,0.00,,2013-05-22 18:02:00,
2013-05-22 18:14:00,51.0,50.0,-100.00,North,0,13.0,16.0,99,0.00,,,0.00,,2013-05-22 18:14:00,
2013-05-22 18:33:00,51.0,50.0,-100.00,North,0,12.0,17.0,99,0.00,,,0.00,,2013-05-22 18:33:00,
2013-05-22 18:42:00,51.0,50.0,-100.00,North,0,15.0,17.0,99,0.00,,,0.00,,2013-05-22 18:42:00,
2013-05-22 19:02:00,51.0,50.0,-100.00,North,355,13.0,17.0,99,0.00,,,0.00,,2013-05-22 19:02:00,
2013-05-22 19:11:00,51.0,50.0,-100.00,North,0,12.0,17.0,99,0.00,,,0.00,,2013-05-22 19:11:00,
2013-05-22 19:21:00,51.0,50.0,-100.00,North,355,14.0,17.0,100,0.00,,,0.00,,2013-05-22 19:21:00,
2013-05-22 19:32:00,51.0,50.0,-100.00,North,0,14.0,17.0,99,0.00,,,0.00,,2013-05-22 19:32:00,
2013-05-22 19:42:00,51.0,50.0,-100.00,North,0,14.0,18.0,99,0.00,,,0.00,,2013-05-22 19:42:00,
2013-05-22 19:52:00,50.0,50.0,-100.00,North,355,14.0,20.0,99,0.00,,,0.00,,2013-05-22 19:52:00,
2013-05-22 20:11:00,51.0,50.0,-100.00,North,0,13.0,20.0,99,0.00,,,0.00,,2013-05-22 20:11:00,
2013-05-22 20:42:00,52.0,52.0,-100.00,North,355,15.0,20.0,99,0.00,,,0.00,,2013-05-22 20:42:00,
2013-05-22 21:01:00,52.0,52.0,-100.00,North,0,13.0,17.0,99,0.00,,,0.00,,2013-05-22 21:01:00,
2013-05-22 21:11:00,52.0,52.0,-100.00,North,0,15.0,20.0,99,0.00,,,0.00,,2013-05-22 21:11:00,
2013-05-22 21:21:00,52.0,52.0,-100.00,North,350,14.0,20.0,99,0.00,,,0.00,,2013-05-22 21:21:00,
2013-05-22 21:32:00,53.0,52.0,-100.00,North,0,16.0,20.0,99,0.00,,,0.00,,2013-05-22 21:32:00,
2013-05-22 21:42:00,52.0,52.0,-100.00,North,0,16.0,20.0,99,0.00,,,0.00,,2013-05-22 21:42:00,
2013-05-22 21:52:00,52.0,52.0,-100.00,North,0,15.0,23.0,99,0.00,,,0.00,,2013-05-22 21:52:00,
2013-05-22 22:03:00,52.0,52.0,-100.00,North,5,15.0,21.0,99,0.00,,,0.00,,2013-05-22 22:03:00,
2013-05-22 22:12:00,52.0,52.0,-100.00,NNE,15,17.0,21.0,99,0.00,,,0.00,,2013-05-22 22:12:00,
2013-05-22 22:33:00,52.0,52.0,-100.00,NNE,15,14.0,17.0,99,0.00,,,0.00,,2013-05-22 22:33:00,
2013-05-22 22:42:00,52.0,52.0,-100.00,North,10,11.0,19.0,99,0.00,,,0.00,,2013-05-22 22:42:00,
2013-05-22 23:42:00,51.0,50.0,-100.00,NNE,15,17.0,23.0,99,0.00,,,0.00,,2013-05-22 23:42:00,
2013-05-22 23:52:00,51.0,50.0,-100.00,NNE,25,16.0,22.0,99,0.00,,,0.00,,2013-05-22 23:52:00,